Key West, FL

9:13 PM EDT on April 25, 2018 (GMT -0400)
Key West International

Weather History for KEYW - January, 2015

Change the Weather History Date:

Sunday, January 4, 2015

  Actual Average Record
Temperature  
Mean Temperature 79 °F 69 °F  
Max Temperature 82 °F 74 °F 85 °F (1942)
Min Temperature 76 °F 64 °F 46 °F (1918)
Degree Days  
Heating Degree Days 0 1  
Month to date heating degree days 0 4  
Since 1 July heating degree days 6 22  
Cooling Degree Days 14 5  
Month to date cooling degree days 54 22  
Year to date cooling degree days 54 22  
Growing Degree Days 30 (Base 50)    
Moisture  
Dew Point 73 °F    
Average Humidity 81    
Maximum Humidity 88    
Minimum Humidity 74    
Precipitation  
Precipitation T in 0.06 in 4.13 in (2014)
Month to date precipitation T 0.24  
Year to date precipitation T 0.24  
Snow  
Snow 0.00 in - - ()
Month to date snowfall 0.0  
Since 1 July snowfall 0.0  
Snow Depth 0.00 in    
Sea Level Pressure  
Sea Level Pressure 30.20 in    
Wind  
Wind Speed 10 mph (ESE)    
Max Wind Speed 18 mph    
Max Gust Speed 24 mph    
Visibility 10 miles    
Events      
T = Trace of Precipitation, MM = Missing Value Source: NWS Daily Summary

Daily Weather History Graph

Daily Weather History Graph

Search for Another Location

Airport or City:

Astronomy

Jan. 04, 2015 Rise Set
Actual Time 7:11 AM EST 5:52 PM EST
Civil Twilight 6:47 AM EST 6:16 PM EST
Nautical Twilight 6:18 AM EST 6:45 PM EST
Astronomical Twilight 5:51 AM EST 7:12 PM EST
Moon 5:44 PM EST (1/4) 6:29 AM EST (1/4)
Length of Visible Light 11h 29m
Length of Day
10h 40m
Full, 100% of the Moon is Illuminated
Jan 4
Full
Jan 4
Full
Jan 13
Last Quarter
Jan 20
New
Jan 26
First Quarter

Hourly Weather History & Observations

Time (EST) Temp. Heat Index Dew Point Humidity Pressure Visibility Wind Dir Wind Speed Gust Speed Precip Events Conditions
12:53 AM 78.1 °F - 73.0 °F 84% 30.18 in 10.0 mi ESE 13.8 mph - N/A   Mostly Cloudy
1:01 AM 78.1 °F - 73.0 °F 84% 30.18 in 10.0 mi ESE 12.7 mph - N/A   Scattered Clouds
1:53 AM 78.1 °F - 72.0 °F 81% 30.17 in 10.0 mi ESE 15.0 mph - N/A   Scattered Clouds
2:53 AM 78.1 °F - 73.0 °F 84% 30.17 in 10.0 mi SE 13.8 mph - N/A   Scattered Clouds
3:53 AM 78.1 °F - 72.0 °F 81% 30.16 in 10.0 mi ESE 13.8 mph - N/A   Partly Cloudy
4:53 AM 78.1 °F - 72.0 °F 81% 30.17 in 10.0 mi ESE 11.5 mph - N/A   Scattered Clouds
5:07 AM 78.1 °F - 72.0 °F 81% 30.17 in 10.0 mi ESE 13.8 mph - N/A   Mostly Cloudy
5:35 AM 78.1 °F - 72.0 °F 81% 30.18 in 10.0 mi ESE 12.7 mph - N/A   Overcast
5:53 AM 78.1 °F - 71.1 °F 79% 30.18 in 10.0 mi ESE 15.0 mph - N/A   Mostly Cloudy
6:53 AM 77.0 °F - 72.0 °F 84% 30.19 in 10.0 mi ESE 12.7 mph - N/A   Partly Cloudy
7:53 AM 78.1 °F - 71.1 °F 79% 30.21 in 10.0 mi SE 13.8 mph - N/A   Clear
8:53 AM 79.0 °F - 71.1 °F 77% 30.22 in 10.0 mi SE 13.8 mph - N/A   Partly Cloudy
9:53 AM 80.1 °F 83.8 °F 72.0 °F 76% 30.24 in 10.0 mi SE 12.7 mph - N/A   Partly Cloudy
10:53 AM 81.0 °F 85.8 °F 73.0 °F 77% 30.22 in 10.0 mi SE 11.5 mph - N/A   Clear
11:53 AM 82.0 °F 87.9 °F 73.9 °F 76% 30.20 in 10.0 mi ESE 8.1 mph - N/A   Clear
12:35 PM 82.0 °F 87.9 °F 73.9 °F 76% 30.19 in 10.0 mi SE 11.5 mph - N/A   Mostly Cloudy
12:45 PM 82.0 °F 87.9 °F 73.9 °F 76% 30.19 in 10.0 mi ESE 10.4 mph - N/A   Scattered Clouds
12:53 PM 81.0 °F 86.2 °F 73.9 °F 79% 30.19 in 10.0 mi ESE 9.2 mph - N/A   Mostly Cloudy
1:01 PM 80.1 °F 84.5 °F 73.9 °F 81% 30.19 in 10.0 mi ESE 10.4 mph - N/A   Scattered Clouds
1:53 PM 81.0 °F 86.2 °F 73.9 °F 79% 30.19 in 10.0 mi ESE 10.4 mph - 0.00 in   Scattered Clouds
2:53 PM 81.0 °F 86.2 °F 73.9 °F 79% 30.18 in 10.0 mi East 6.9 mph - N/A   Mostly Cloudy
3:53 PM 81.0 °F 86.2 °F 73.9 °F 79% 30.18 in 10.0 mi East 10.4 mph - N/A   Clear
4:53 PM 80.1 °F 84.5 °F 73.9 °F 81% 30.19 in 10.0 mi East 11.5 mph - N/A   Clear
5:53 PM 78.1 °F - 73.9 °F 87% 30.21 in 10.0 mi East 9.2 mph - N/A   Clear
6:53 PM 78.1 °F - 73.9 °F 87% 30.22 in 10.0 mi East 5.8 mph - N/A   Clear
7:53 PM 78.1 °F - 73.9 °F 87% 30.24 in 10.0 mi East 8.1 mph - N/A   Clear
8:53 PM 77.0 °F - 73.9 °F 90% 30.26 in 10.0 mi East 5.8 mph - N/A   Clear
9:53 PM 77.0 °F - 73.9 °F 90% 30.26 in 10.0 mi East 5.8 mph - N/A   Clear
10:53 PM 77.0 °F - 73.9 °F 90% 30.25 in 10.0 mi East 5.8 mph - N/A   Partly Cloudy
11:53 PM 77.0 °F - 73.9 °F 90% 30.25 in 10.0 mi East 6.9 mph - N/A   Clear